Regional Weather Roundup
Issued by NWS Little Rock, AR

Home | Current Version | Previous Version | Graphics & Text | Print | Product List | Glossary On
Versions: 1 2 3 4 5 6 7 8 9 10 11 12 13 14 15 16 17 18 19 20 21 22 23 24 25 26 27 28 29 30 31 32 33 34 35 36 37 38 39 40 41 42 43 44 45 46 47 48 49 50
000
ASUS44 KLZK 031405
RWRLZK

WEATHER ROUNDUP FOR ARKANSAS
NATIONAL WEATHER SERVICE LITTLE ROCK AR
900 AM CDT THU SEP 03 2015

NOTE: "FAIR" INDICATES FEW OR NO CLOUDS BELOW 12,000 FEET WITH NO
SIGNIFICANT WEATHER AND/OR OBSTRUCTIONS TO VISIBILITY.

ARZ001-003-010-029-031500-
NORTHWEST ARKANSAS

CITY           SKY/WX    TMP DP  RH WIND       PRES   REMARKS
FAYETTEVILLE   SUNNY     73  70  90 S3        30.05S
FORT SMITH     SUNNY     76  68  76 E7        30.01S
HARRISON       SUNNY     73  68  84 SE7       30.07R
BENTONVILLE    SUNNY     75  66  73 S5        30.06S
ROGERS         SUNNY     76  68  76 S6        30.06R
SILOAM SPGS    SUNNY     75  64  69 S3        30.03S
HIGHFILL       SUNNY     75  70  84 S5        30.05R
SPRINGDALE     SUNNY     75  68  78 S5        30.07R
$$

ARZ004-005-016-031500-
NORTH CENTRAL ARKANSAS

CITY           SKY/WX    TMP DP  RH WIND       PRES   REMARKS
BATESVILLE     SUNNY     79  70  73 CALM      30.04S
FLIPPIN        SUNNY     73  64  73 CALM      30.04R
MTN HOME       SUNNY     74  67  78 CALM      30.05R
$$

ARZ040-041-031500-
WEST CENTRAL ARKANSAS

CITY           SKY/WX    TMP DP  RH WIND       PRES   REMARKS
MENA           SUNNY     73  70  88 CALM      30.05S
MOUNT IDA      SUNNY     76  69  79 CALM      30.02S
$$

ARZ009-017-025-026-028-031500-
NORTHEAST ARKANSAS

CITY           SKY/WX    TMP DP  RH WIND       PRES   REMARKS
JONESBORO      SUNNY     79  73  82 CALM      30.03S
NEWPORT        SUNNY     82  72  72 CALM      30.04S HX  86
WALNUT RIDGE   SUNNY     77  72  83 CALM      30.04S
BLYTHEVILLE    SUNNY     80  74  81 CALM      30.04S HX  85
$$

ARZ022-023-033-042-044-031500-
CENTRAL ARKANSAS

CITY           SKY/WX    TMP DP  RH WIND       PRES   REMARKS
LITTLE ROCK    SUNNY     79  71  76 CALM      30.03S
N LITTLE ROCK  SUNNY     78  73  83 SE3       30.03S
JACKSONVILLE   SUNNY     76  72  86 NE1       30.03S
SEARCY         SUNNY     77  72  84 CALM      30.05S
HOT SPRINGS    SUNNY     76  68  76 CALM      30.04S
RUSSELLVILLE   SUNNY     77  70  79 E5        30.03S
$$

ARZ036-031500-
EAST ARKANSAS

CITY           SKY/WX    TMP DP  RH WIND       PRES   REMARKS
WEST MEMPHIS   SUNNY     79  74  84 CALM      30.03S
$$

ARZ050-053-066-070-073-031500-
SOUTHWEST ARKANSAS

CITY           SKY/WX    TMP DP  RH WIND       PRES   REMARKS
ARKADELPHIA    FAIR      76  71  84 CALM      30.03S
CAMDEN         SUNNY     75  68  78 CALM      30.02S
TEXARKANA      SUNNY     78  70  76 S5        30.02S
EL DORADO      SUNNY     77  69  76 CALM      30.03S
DE QUEEN       SUNNY     77  70  79 NE3       30.00F
$$

ARZ056-057-069-031500-
SOUTHEAST ARKANSAS

CITY           SKY/WX    TMP DP  RH WIND       PRES   REMARKS
PINE BLUFF     SUNNY     77  73  87 CALM      30.02F
STUTTGART      SUNNY     79  70  73 S3        30.03S
MONTICELLO     SUNNY     77  74  90 CALM      30.02S

$$





USA.gov is the U.S. government's official web portal to all federal, state and local government web resources and services.